Skip Page Navigation
NASA JPL Caltech
NASA Logo - Jet Propulsion Laboratory + View the NASA Portal
+ Center for Near-Earth Object Studies
JPL Home Earth Solar System Stars & Galaxies Technology
JPL Solar System Dynamics
BODIES ORBITS EPHEMERIDES TOOLS PHYSICAL DATA DISCOVERY FAQ SITE MAP
JPL Small-Body Database Browser
Search: [ help ]  
71689 (2000 FD34)
Classification: Main-belt Asteroid          SPK-ID: 2071689
Ephemeris | Orbit Diagram | Orbital Elements | Mission Design | Physical Parameters | Discovery Circumstances | Close-Approach Data ]

[ show orbit diagram ]
Orbital Elements at Epoch 2459000.5 (2020-May-31.0) TDB
Reference: JPL 22 (heliocentric ecliptic J2000)
 Element Value Uncertainty (1-sigma)   Units 
e .1429780439956626 4.1276e-08  
a 3.176679792660286 2.4784e-08 au
q 2.722484329505171 1.3694e-07 au
i 17.96628367991215 4.4298e-06 deg
node 133.4400795609447 1.329e-05 deg
peri 336.588322962426 1.8724e-05 deg
M 259.877637135732 1.4995e-05 deg
tp 2459575.658016118869
(2021-Dec-27.15801612)
8.9624e-05 TDB
period 2068.03834707229
5.66
2.4201e-05
6.626e-08
d
yr
n .1740780099700036 2.0372e-09 deg/d
Q 3.6308752558154 2.8327e-08 au
  Orbit Determination Parameters
   # obs. used (total)      1094  
   data-arc span      7623 days (20.87 yr)  
   first obs. used      1998-12-19  
   last obs. used      2019-11-02  
   planetary ephem.      DE431  
   SB-pert. ephem.      SB431-N16  
   condition code      0  
   norm. resid. RMS      .57048  
   source      ORB  
   producer      Otto Matic  
   solution date      2019-Dec-04 06:17:52  

Additional Information
 Earth MOID = 1.74709 au 
 Jupiter MOID = 1.48791 au 
 T_jup = 3.109 
[ show covariance matrix ]

Ephemeris | Orbit Diagram | Orbital Elements | Mission Design | Physical Parameters | Discovery Circumstances | Close-Approach Data ]

Physical Parameter Table
Parameter Symbol Value Units Sigma Reference Notes
absolute magnitude H 13.7   n/a MPO359246  
diameter diameter 10.234 km 0.188 urn:nasa:pds:neowise_diameters_albedos::2.0[mainbelt] (http://adsabs.harvard.edu/abs/2011ApJ...741...68M)  
geometric albedo albedo 0.056   0.016 urn:nasa:pds:neowise_diameters_albedos::2.0[mainbelt] (http://adsabs.harvard.edu/abs/2011ApJ...741...68M)  

71689 (2000 FD34)          Discovered 2000-Mar-29 by LINEAR at Socorro
Reference: 20031109/Numbers.arcLast Updated: 2004-04-19

[ hide close-approach data ]
Close-Approach Data   ...sorted by Date/Time (TDB)
Date/Time (TDB) Time Uncertainty
(days_HH:MM)
Body Nominal Distance (au) Minimum Distance (au) Maximum Distance (au) V-relative (km/s) V-infinity (km/s) JD (TDB) Time Uncertainty (minutes) Semi-major axis (km) Semi-minor axis (km) range-LOV angle (deg) N-sigma BP Orbit Ref. Reference Modified
1974-Apr-27 18:49 00:02 Jupiter 1.62531868952124 1.62531758266113 1.6253197963955 4.43751960087944 4.31848299375504 2442165.283992141 1.67161215824249 257.003540257806 13.9834971003159 77.9892732600815 4107734.91628102 T 22 CATAB v2.0f-lin.ifort 2019-Dec-04 06:18:05 2019-Dec-04 06:18
1985-May-05 00:17 00:01 Jupiter 1.56065152125991 1.56065102862757 1.56065201389366 4.34323071965535 4.21641792529595 2446190.511926825 1.09395967000323 163.320950256121 21.6944993700563 -85.8100660772053 3680813.99682568 T 22 CATAB v2.0f-lin.ifort 2019-Dec-04 06:18:05 2019-Dec-04 06:18
1996-Apr-25 00:08 < 00:01 Jupiter 1.85944727159492 1.85944645136427 1.85944809182567 3.81998610843632 3.69881686998972 2450198.505772691 0.811452846487743 104.509913119893 42.4808941572316 89.9990477521993 3259481.94575108 T 22 CATAB v2.0f-lin.ifort 2019-Dec-04 06:18:05 2019-Dec-04 06:18
2093-Nov-23 01:45 00:03 Jupiter 1.98391367138721 1.98391151295307 1.98391582982497 3.95130588218881 3.84173498269216 2485839.572805428 2.86730032088889 177.048695481388 28.0026179887649 51.7733202535307 4092069.37896573 T 22 CATAB v2.0f-lin.ifort 2019-Dec-04 06:18:05 2019-Dec-04 06:18
2104-Oct-01 12:21 00:03 Jupiter 1.59770364415064 1.597702296137 1.5977049922016 4.38340221809611 4.26074114382221 2489804.014562073 2.60352092689087 407.997198158468 15.0640817080701 80.6907712426084 3865435.161786 T 22 CATAB v2.0f-lin.ifort 2019-Dec-04 06:18:05 2019-Dec-04 06:18
2115-Oct-13 14:21 00:03 Jupiter 1.55997605375826 1.55997485707601 1.55997725047269 4.34611110530633 4.21932918459259 2493833.097735346 2.89109637438642 396.600480300352 24.3227138069035 -81.8663053105276 3709413.45018851 T 22 CATAB v2.0f-lin.ifort 2019-Dec-04 06:18:05 2019-Dec-04 06:18
2126-Oct-01 05:59 00:04 Jupiter 1.88572839198883 1.88572504761345 1.88573173636646 3.88096624887026 3.76344902069019 2497838.749284927 4.01366604480194 204.177656997149 96.3753006085357 -34.6307501173926 3377431.12438861 T 22 CATAB v2.0f-lin.ifort 2019-Dec-04 06:18:05 2019-Dec-04 06:18
Ephemeris | Orbit Diagram | Orbital Elements | Mission Design | Physical Parameters | Discovery Circumstances | Close-Approach Data ]
ABOUT SSD CREDITS/AWARDS PRIVACY/COPYRIGHT GLOSSARY LINKS
FirstGov 2020-Jul-02 14:12 UT
(server date/time)  
NASA Home Page
Site Manager:   Ryan S. Park
Webmaster  Alan B. Chamberlin